Point Salines, Grenada

8:48 PM AST on August 31, 2016 (GMT -0400)
Point Salines International

Weather History for TGPY - February, 2014

Change the Weather History Date:

Sunday, February 16, 2014

  Actual Average Record
Temperature  
Mean Temperature 77 °F -  
Max Temperature 83 °F 83 °F 86 °F (2008)
Min Temperature 71 °F 74 °F 71 °F (1999)
Cooling Degree Days 12    
Growing Degree Days 27 (Base 50)    
Moisture  
Dew Point 72 °F    
Average Humidity 79    
Maximum Humidity 100    
Minimum Humidity 59    
Precipitation  
Precipitation 0.28 in - - ()
Sea Level Pressure  
Sea Level Pressure 29.97 in    
Wind  
Wind Speed 13 mph ()    
Max Wind Speed 23 mph    
Max Gust Speed -    
Visibility 7.3 miles    
Events Rain    
Averages and records for this station are not official NWS values.
T = Trace of Precipitation, MM = Missing Value Source: Averaged Metar Reports

Daily Weather History Graph

Daily Weather History Graph

Search for Another Location

Airport or City:

Trip Planner

Search our weather history database for the weather conditions in past years. The results will help you decide how hot, cold, wet, or windy it might be!

Date:

Astronomy

Feb. 16, 2014 Rise Set
Actual Time 6:28 AM AST 6:14 PM AST
Civil Twilight 6:06 AM AST 6:35 PM AST
Nautical Twilight 5:41 AM AST 7:00 PM AST
Astronomical Twilight 5:16 AM AST 7:25 PM AST
Moon 7:38 PM AST (2/16) 7:19 AM AST (2/16)
Length of Visible Light 12h 29m
Length of Day
11h 45m
Full, 97% of the Moon is Illuminated
Feb 16
Full
Feb 22
Last Quarter
Mar 1
New
Mar 8
First Quarter
Mar 16
Full

Hourly Weather History & Observations

Time (AST) Temp. Heat Index Dew Point Humidity Pressure Visibility Wind Dir Wind Speed Gust Speed Precip Events Conditions
12:00 AM 78.8 °F - 73.4 °F 83% 30.01 in 6.2 mi East 15.0 mph - N/A   Scattered Clouds
1:00 AM 78.8 °F - 73.4 °F 83% 29.98 in 6.2 mi East 20.7 mph - N/A   Scattered Clouds
2:00 AM 78 °F - 72 °F 75% 29.99 in 9 mi East 15.0 mph - -   Widespread Dust
2:00 AM 77.0 °F - 71.6 °F 83% 29.98 in 6.2 mi East 15.0 mph - N/A   Partly Cloudy
3:00 AM 77.0 °F - 71.6 °F 83% 29.95 in 6.2 mi East 17.3 mph - N/A   Scattered Clouds
4:00 AM 77.0 °F - 71.6 °F 83% 29.95 in 6.2 mi East 13.8 mph - N/A   Scattered Clouds
5:00 AM 77 °F - 72 °F 80% 29.97 in 9 mi East 9.2 mph - -   Widespread Dust
5:00 AM 77.0 °F - 71.6 °F 83% 29.95 in 6.2 mi East 9.2 mph - N/A   Scattered Clouds
6:00 AM 77.0 °F - 69.8 °F 78% 29.98 in 6.2 mi East 13.8 mph - N/A   Scattered Clouds
7:00 AM 73.4 °F - 73.4 °F 100% 29.98 in 6.2 mi SE 20.7 mph - N/A Rain Light Rain Showers
8:00 AM 73 °F - 72 °F 98% 30.01 in 9 mi Calm Calm - - Rain Light Rain Showers
8:00 AM 73.4 °F - 73.4 °F 100% 30.01 in 6.2 mi Calm Calm - N/A Rain Light Rain Showers
9:00 AM 78.8 °F - 73.4 °F 83% 30.01 in 6.2 mi East 13.8 mph - N/A   Scattered Clouds
10:00 AM 80.6 °F 84.6 °F 71.6 °F 74% 30.01 in 6.2 mi SE 18.4 mph - N/A   Partly Cloudy
11:00 AM 81 °F - 73 °F 71% 30.02 in 11 mi East 20.7 mph - -   Widespread Dust
11:00 AM 80.6 °F 85.4 °F 73.4 °F 79% 30.01 in 6.2 mi East 20.7 mph - N/A   Partly Cloudy
12:00 PM 80.6 °F 85.4 °F 73.4 °F 79% 29.98 in 6.2 mi SE 23.0 mph - N/A   Partly Cloudy
1:00 PM 80.6 °F 85.4 °F 73.4 °F 79% 29.95 in 6.2 mi ESE 23.0 mph - N/A   Partly Cloudy
2:00 PM 82 °F - 70 °F 59% 29.95 in 12 mi ESE 18.4 mph - -   Widespread Dust
2:00 PM 82.4 °F 86.3 °F 69.8 °F 66% 29.95 in 6.2 mi ESE 18.4 mph - N/A   Partly Cloudy
3:00 PM 82.4 °F 86.3 °F 69.8 °F 66% 29.92 in 6.2 mi ESE 20.7 mph - N/A   Partly Cloudy
4:00 PM 82.4 °F 87.2 °F 71.6 °F 70% 29.92 in 6.2 mi ESE 16.1 mph - N/A   Partly Cloudy
5:00 PM 80 °F - 71 °F 66% 29.92 in 12 mi ESE 15.0 mph - -   Widespread Dust
5:00 PM 80.6 °F 83.9 °F 69.8 °F 70% 29.92 in 6.2 mi ESE 15.0 mph - N/A   Partly Cloudy
6:00 PM 78.8 °F - 69.8 °F 74% 29.92 in 6.2 mi East 12.7 mph - N/A   Partly Cloudy
7:00 PM 77.0 °F - 69.8 °F 78% 29.95 in 6.2 mi East 10.4 mph - N/A   Partly Cloudy
8:00 PM 77 °F - 71 °F 76% 29.96 in 12 mi East 10.4 mph - -   Widespread Dust
8:00 PM 77.0 °F - 71.6 °F 83% 29.95 in 6.2 mi East 10.4 mph - N/A   Partly Cloudy
9:00 PM 77.0 °F - 71.6 °F 83% 29.98 in 6.2 mi East 10.4 mph - N/A   Partly Cloudy
10:00 PM 77.0 °F - 71.6 °F 83% 29.98 in 6.2 mi ENE 8.1 mph - N/A   Partly Cloudy
11:00 PM 75 °F - 70 °F 80% 29.97 in 12 mi East 9.2 mph - -   Widespread Dust
11:00 PM 75.2 °F - 69.8 °F 83% 29.95 in 6.2 mi East 9.2 mph - N/A   Partly Cloudy